Weather History for Soldotna, AK

Change the Weather History Date:

Tuesday, May 21, 2013

  Actual Average Record
Temperature  
Mean Temperature 38 °F -  
Max Temperature 48 °F 53 °F 75 °F (2002)
Min Temperature 28 °F 36 °F 26 °F (1985)
Degree Days  
Heating Degree Days 27    
Moisture  
Dew Point 30 °F    
Average Humidity 67    
Maximum Humidity 86    
Minimum Humidity 50    
Precipitation  
Precipitation 0.00 in - - ()
Sea Level Pressure  
Sea Level Pressure 30.42 in    
Wind  
Wind Speed 3 mph (NNE)    
Max Wind Speed 13 mph    
Max Gust Speed -    
Visibility 10 miles    
Events      
Averages and records for this station are not official NWS values.
T = Trace of Precipitation, MM = Missing Value Source: NWS Daily Summary

Daily Weather History Graph

Daily Weather History Graph

Search for Another Location

Airport:

Trip Planner

Search our weather history database for the weather conditions in past years. The results will help you decide how hot, cold, wet, or windy it might be!

Date:

Astronomy

May. 21, 2013 Rise Set
Actual Time 5:08 AM AKDT 10:55 PM AKDT
Civil Twilight 3:54 AM AKDT 12:09 AM AKDT
Nautical Twilight Sun does not rise Sun does not rise
Astronomical Twilight Sun does not rise Sun does not rise
Moon 6:23 PM AKDT (5/21) 3:49 AM AKDT (5/21)
Length of Visible Light 20h 14m
Length of Day
17h 46m
Waxing Gibbous, 85% of the Moon is Illuminated
May 21
Waxing Gibbous
May 24
Full
May 31
Last Quarter
Jun 8
New
Jun 16
First Quarter

Hourly Weather History & Observations

Time (AKDT) Temp. Windchill Dew Point Humidity Pressure Visibility Wind Dir Wind Speed Gust Speed Precip Events Conditions
12:16 AM 32.0 °F - 26.6 °F 80% 30.55 in 10.0 mi Calm Calm - N/A   Clear
12:36 AM 32.0 °F - 26.6 °F 80% 30.55 in 10.0 mi Calm Calm - N/A   Partly Cloudy
12:56 AM 30.2 °F - 24.8 °F 80% 30.55 in 10.0 mi Calm Calm - N/A   Mostly Cloudy
1:16 AM 28.4 °F - 24.8 °F 86% 30.55 in 10.0 mi Calm Calm - N/A   Scattered Clouds
1:36 AM 30.2 °F 25.4 °F 24.8 °F 80% 30.55 in 10.0 mi East 4.6 mph - N/A   Partly Cloudy
1:56 AM 30.2 °F 26.7 °F 26.6 °F 86% 30.55 in 10.0 mi East 3.5 mph - N/A   Mostly Cloudy
2:16 AM 32.0 °F 28.7 °F 26.6 °F 80% 30.55 in 10.0 mi East 3.5 mph - N/A   Overcast
2:36 AM 33.8 °F 30.8 °F 26.6 °F 75% 30.55 in 10.0 mi East 3.5 mph - N/A   Overcast
2:56 AM 33.8 °F 30.8 °F 26.6 °F 75% 30.55 in 10.0 mi East 3.5 mph - N/A   Overcast
3:16 AM 33.8 °F 29.6 °F 26.6 °F 75% 30.54 in 10.0 mi East 4.6 mph - N/A   Overcast
3:36 AM 33.8 °F 28.6 °F 28.4 °F 81% 30.53 in 10.0 mi East 5.8 mph - N/A   Overcast
3:56 AM 33.8 °F - 28.4 °F 81% 30.53 in 10.0 mi Calm Calm - N/A   Overcast
4:16 AM 33.8 °F 30.8 °F 28.4 °F 81% 30.53 in 10.0 mi East 3.5 mph - N/A   Overcast
4:36 AM 33.8 °F 30.8 °F 26.6 °F 75% 30.53 in 10.0 mi East 3.5 mph - N/A   Overcast
4:56 AM 33.8 °F - 26.6 °F 75% 30.52 in 10.0 mi Calm Calm - N/A   Overcast
5:16 AM 33.8 °F 30.8 °F 26.6 °F 75% 30.51 in 10.0 mi East 3.5 mph - N/A   Overcast
5:36 AM 33.8 °F 30.8 °F 28.4 °F 81% 30.51 in 10.0 mi East 3.5 mph - N/A   Overcast
5:56 AM 33.8 °F 30.8 °F 26.6 °F 75% 30.51 in 10.0 mi East 3.5 mph - N/A   Overcast
6:16 AM 33.8 °F 30.8 °F 28.4 °F 81% 30.51 in 10.0 mi East 3.5 mph - N/A   Overcast
6:36 AM 33.8 °F 30.8 °F 28.4 °F 81% 30.51 in 10.0 mi East 3.5 mph - N/A   Overcast
6:56 AM 33.8 °F 30.8 °F 28.4 °F 81% 30.50 in 10.0 mi East 3.5 mph - N/A   Overcast
7:16 AM 33.8 °F 30.8 °F 28.4 °F 81% 30.50 in 10.0 mi East 3.5 mph - N/A   Overcast
7:36 AM 35.6 °F 32.8 °F 28.4 °F 75% 30.49 in 10.0 mi East 3.5 mph - N/A   Overcast
7:56 AM 35.6 °F 32.8 °F 28.4 °F 75% 30.49 in 10.0 mi East 3.5 mph - N/A   Overcast
8:16 AM 35.6 °F 31.7 °F 28.4 °F 75% 30.48 in 10.0 mi East 4.6 mph - N/A   Overcast
8:36 AM 37.4 °F 34.9 °F 28.4 °F 70% 30.48 in 10.0 mi East 3.5 mph - N/A   Overcast
8:56 AM 37.4 °F 34.9 °F 28.4 °F 70% 30.48 in 10.0 mi East 3.5 mph - N/A   Overcast
9:16 AM 39.2 °F 35.9 °F 30.2 °F 70% 30.47 in 10.0 mi East 4.6 mph - N/A   Overcast
9:36 AM 39.2 °F 37.0 °F 30.2 °F 70% 30.47 in 10.0 mi East 3.5 mph - N/A   Overcast
9:56 AM 41.0 °F - 30.2 °F 65% 30.47 in 10.0 mi Calm Calm - N/A   Overcast
10:16 AM 42.8 °F 39.3 °F 32.0 °F 66% 30.46 in 10.0 mi East 5.8 mph - N/A   Overcast
10:36 AM 42.8 °F 41.1 °F 30.2 °F 61% 30.46 in 10.0 mi ENE 3.5 mph - N/A   Overcast
10:56 AM 42.8 °F 40.1 °F 30.2 °F 61% 30.45 in 10.0 mi ENE 4.6 mph - N/A   Overcast
11:16 AM 44.6 °F - 32.0 °F 61% 30.45 in 10.0 mi Calm Calm - N/A   Overcast
11:36 AM 44.6 °F 43.1 °F 32.0 °F 61% 30.44 in 10.0 mi North 3.5 mph - N/A   Overcast
11:56 AM 44.6 °F - 32.0 °F 61% 30.44 in 10.0 mi Calm Calm - N/A   Overcast
12:16 PM 46.4 °F 45.2 °F 32.0 °F 57% 30.43 in 10.0 mi ESE 3.5 mph - N/A   Mostly Cloudy
12:36 PM 46.4 °F - 30.2 °F 53% 30.42 in 10.0 mi Calm Calm - N/A   Overcast
12:56 PM 46.4 °F 45.2 °F 30.2 °F 53% 30.42 in 10.0 mi North 3.5 mph - N/A   Overcast
1:16 PM 48.2 °F - 30.2 °F 50% 30.42 in 10.0 mi Calm Calm - N/A   Overcast
1:36 PM 48.2 °F - 30.2 °F 50% 30.41 in 10.0 mi Calm Calm - N/A   Overcast
1:56 PM 46.4 °F 44.3 °F 32.0 °F 57% 30.40 in 10.0 mi NNW 4.6 mph - N/A   Overcast
2:16 PM 48.2 °F - 33.8 °F 58% 30.40 in 10.0 mi WNW 9.2 mph - N/A   Overcast
2:36 PM 46.4 °F 42.4 °F 33.8 °F 62% 30.39 in 10.0 mi WNW 8.1 mph - N/A   Overcast
2:56 PM 46.4 °F 42.4 °F 33.8 °F 62% 30.39 in 10.0 mi West 8.1 mph - N/A   Overcast
3:16 PM 46.4 °F 43.5 °F 33.8 °F 62% 30.38 in 10.0 mi WNW 5.8 mph - N/A   Overcast
3:36 PM 48.2 °F - 33.8 °F 58% 30.38 in 10.0 mi NW 6.9 mph - N/A   Overcast
3:56 PM 48.2 °F - 33.8 °F 58% 30.38 in 10.0 mi WNW 5.8 mph - N/A   Overcast
4:16 PM 48.2 °F - 32.0 °F 54% 30.37 in 10.0 mi WNW 6.9 mph - N/A   Overcast
4:36 PM 48.2 °F - 32.0 °F 54% 30.37 in 10.0 mi NW 4.6 mph - N/A   Overcast
4:56 PM 48.2 °F - 33.8 °F 58% 30.36 in 10.0 mi NW 3.5 mph - N/A   Overcast
5:16 PM 48.2 °F - 33.8 °F 58% 30.35 in 10.0 mi WNW 9.2 mph - N/A   Mostly Cloudy
5:36 PM 48.2 °F - 32.0 °F 54% 30.34 in 10.0 mi WSW 9.2 mph - N/A   Mostly Cloudy
5:56 PM 48.2 °F - 32.0 °F 54% 30.33 in 10.0 mi West 5.8 mph - N/A   Overcast
6:16 PM 48.2 °F - 33.8 °F 58% 30.32 in 10.0 mi WNW 4.6 mph - N/A   Overcast
6:36 PM 48.2 °F - 33.8 °F 58% 30.32 in 10.0 mi NW 6.9 mph - N/A   Overcast
6:56 PM 48.2 °F - 32.0 °F 54% 30.31 in 10.0 mi West 12.7 mph - N/A   Overcast
7:16 PM 46.4 °F 41.1 °F 30.2 °F 53% 30.32 in 10.0 mi West 11.5 mph - N/A   Overcast
7:36 PM 46.4 °F 40.7 °F 30.2 °F 53% 30.31 in 10.0 mi West 12.7 mph - N/A   Overcast
7:56 PM 44.6 °F 39.2 °F 30.2 °F 57% 30.31 in 10.0 mi West 10.4 mph - N/A   Overcast
8:16 PM 44.6 °F 39.7 °F 30.2 °F 57% 30.31 in 10.0 mi West 9.2 mph - N/A   Overcast
8:36 PM 44.6 °F 40.7 °F 32.0 °F 61% 30.30 in 10.0 mi WNW 6.9 mph - N/A   Overcast
8:56 PM 44.6 °F 40.2 °F 32.0 °F 61% 30.30 in 10.0 mi WNW 8.1 mph - N/A   Overcast
9:16 PM 44.6 °F 40.7 °F 32.0 °F 61% 30.29 in 10.0 mi West 6.9 mph - N/A   Overcast
9:36 PM 44.6 °F 41.4 °F 32.0 °F 61% 30.29 in 10.0 mi West 5.8 mph - N/A   Overcast
9:56 PM 44.6 °F 41.4 °F 32.0 °F 61% 30.28 in 10.0 mi West 5.8 mph - N/A   Overcast
10:16 PM 44.6 °F - 32.0 °F 61% 30.28 in 10.0 mi Calm Calm - N/A   Overcast
10:36 PM 42.8 °F - 32.0 °F 66% 30.28 in 10.0 mi Calm Calm - N/A   Overcast
10:56 PM 42.8 °F - 32.0 °F 66% 30.27 in 10.0 mi Calm Calm - N/A   Overcast
11:16 PM 42.8 °F - 32.0 °F 66% 30.27 in 10.0 mi Calm Calm - N/A   Overcast
11:36 PM 39.2 °F - 30.2 °F 70% 30.27 in 10.0 mi Calm Calm - N/A   Overcast
11:56 PM 39.2 °F - 32.0 °F 75% 30.26 in 10.0 mi Calm Calm - N/A   Overcast